PRLLD SDAG-SBVT

Flight info

Callsign PRLLD
Flight time 1h 12m
Altitude 29000
Route UGRAD UZ42 CXI UL340 VUPIP UL206 TODET
Aircraft TBM8/L-SDFGRWY/S

Departure

Time 2026-04-26 15:54
Airport Angra dos Reis Airport (SDAG)

Arrival

Time 2026-04-26 17:06
Airport Eurico de Aguiar Salles International Airport (SBVT)
Time Latitude Longitude Altitude Speed Heading
2026-04-26 15:49 -22.97509 -44.30322 -5 ft 0 kts 260°
2026-04-26 15:51 -22.97521 -44.30345 0 ft 8 kts 168°
2026-04-26 15:51 -22.97489 -44.30328 -1 ft 7 kts 354°
2026-04-26 15:52 -22.97451 -44.30294 2 ft 7 kts 87°
2026-04-26 15:52 -22.97436 -44.30274 3 ft 4 kts 304°
2026-04-26 15:52 -22.97442 -44.30303 1 ft 0 kts 256°
2026-04-26 15:53 -22.97472 -44.30437 -2 ft 45 kts 257°
2026-04-26 15:53 -22.97625 -44.31190 12 ft 104 kts 258°
2026-04-26 15:53 -22.97814 -44.32038 210 ft 125 kts 256°
2026-04-26 15:53 -22.97868 -44.32692 416 ft 136 kts 276°
2026-04-26 15:54 -22.97451 -44.33666 655 ft 153 kts 317°
2026-04-26 15:54 -22.96434 -44.33998 957 ft 163 kts 13°
2026-04-26 15:54 -22.95534 -44.33301 1270 ft 172 kts 62°
2026-04-26 15:54 -22.95432 -44.32024 1630 ft 178 kts 112°
2026-04-26 15:55 -22.96193 -44.30951 2015 ft 183 kts 136°
2026-04-26 15:55 -22.97003 -44.29853 2370 ft 191 kts 123°
2026-04-26 15:55 -22.97564 -44.28521 2702 ft 198 kts 108°
2026-04-26 15:55 -22.97728 -44.27042 3045 ft 199 kts 92°
2026-04-26 15:56 -22.97743 -44.25545 3401 ft 198 kts 92°
2026-04-26 15:56 -22.97783 -44.24052 3755 ft 198 kts 93°
2026-04-26 15:56 -22.97797 -44.22559 4111 ft 197 kts 88°
2026-04-26 15:56 -22.97791 -44.21052 4472 ft 203 kts 91°
2026-04-26 15:57 -22.97861 -44.19532 4839 ft 201 kts 92°
2026-04-26 15:57 -22.97928 -44.18013 5197 ft 202 kts 91°
2026-04-26 15:57 -22.97976 -44.16485 5559 ft 203 kts 91°
2026-04-26 15:57 -22.98006 -44.15464 5791 ft 204 kts 91°
2026-04-26 15:58 -22.98072 -44.13449 6281 ft 202 kts 91°
2026-04-26 15:58 -22.98116 -44.11915 6625 ft 205 kts 92°
2026-04-26 15:58 -22.98169 -44.10376 6975 ft 205 kts 91°
2026-04-26 15:58 -22.98212 -44.08827 7322 ft 206 kts 91°
2026-04-26 15:59 -22.98258 -44.07280 7682 ft 205 kts 91°
2026-04-26 15:59 -22.98308 -44.05728 8041 ft 206 kts 91°
2026-04-26 15:59 -22.98356 -44.04175 8413 ft 206 kts 91°
2026-04-26 15:59 -22.98404 -44.02613 8779 ft 207 kts 91°
2026-04-26 16:00 -22.98451 -44.01049 9146 ft 207 kts 91°
2026-04-26 16:00 -22.98498 -43.99484 9524 ft 208 kts 91°
2026-04-26 16:00 -22.98545 -43.97918 9892 ft 208 kts 91°
2026-04-26 16:00 -22.98592 -43.96350 10233 ft 208 kts 91°
2026-04-26 16:01 -22.98638 -43.94782 10581 ft 208 kts 91°
2026-04-26 16:01 -22.98685 -43.93213 10931 ft 208 kts 91°
2026-04-26 16:01 -22.98732 -43.91638 11281 ft 209 kts 91°
2026-04-26 16:01 -22.98779 -43.90065 11636 ft 209 kts 91°
2026-04-26 16:02 -22.98825 -43.88486 12000 ft 209 kts 91°
2026-04-26 16:02 -22.98871 -43.86927 12357 ft 210 kts 91°
2026-04-26 16:02 -22.98918 -43.85354 12724 ft 208 kts 91°
2026-04-26 16:02 -22.98947 -43.84292 12978 ft 209 kts 91°
2026-04-26 16:03 -22.99007 -43.82195 13478 ft 210 kts 92°
2026-04-26 16:03 -22.99054 -43.80605 13841 ft 211 kts 92°
2026-04-26 16:03 -22.99102 -43.79010 14172 ft 212 kts 92°
2026-04-26 16:03 -22.99149 -43.77413 14514 ft 211 kts 92°
2026-04-26 16:04 -22.99194 -43.75817 14860 ft 211 kts 91°
2026-04-26 16:04 -22.99238 -43.74230 15207 ft 210 kts 91°
2026-04-26 16:04 -22.99283 -43.72645 15569 ft 210 kts 92°
2026-04-26 16:04 -22.99301 -43.71061 15891 ft 211 kts 84°
2026-04-26 16:05 -22.98883 -43.69549 16212 ft 210 kts 63°
2026-04-26 16:05 -22.98294 -43.68089 16519 ft 213 kts 65°
2026-04-26 16:05 -22.97719 -43.66594 16824 ft 216 kts 65°
2026-04-26 16:05 -22.97126 -43.65079 17126 ft 220 kts 64°
2026-04-26 16:06 -22.96520 -43.63538 17432 ft 223 kts 64°
2026-04-26 16:06 -22.95914 -43.62000 17726 ft 226 kts 64°
2026-04-26 16:06 -22.95310 -43.60466 17980 ft 231 kts 65°
2026-04-26 16:06 -22.94753 -43.59042 18205 ft 235 kts 65°
2026-04-26 16:07 -22.94106 -43.57396 18435 ft 239 kts 64°
2026-04-26 16:07 -22.93445 -43.55723 18658 ft 243 kts 65°
2026-04-26 16:07 -22.92778 -43.54024 18881 ft 246 kts 65°
2026-04-26 16:07 -22.92101 -43.52306 19107 ft 249 kts 64°
2026-04-26 16:08 -22.91415 -43.50570 19332 ft 251 kts 64°
2026-04-26 16:08 -22.90727 -43.48823 19559 ft 252 kts 64°
2026-04-26 16:08 -22.90035 -43.47064 19796 ft 255 kts 64°
2026-04-26 16:08 -22.89333 -43.45292 20026 ft 257 kts 64°
2026-04-26 16:09 -22.88628 -43.43506 20260 ft 258 kts 64°
2026-04-26 16:09 -22.87922 -43.41712 20494 ft 259 kts 64°
2026-04-26 16:09 -22.87219 -43.39932 20734 ft 260 kts 63°
2026-04-26 16:09 -22.86497 -43.38106 20969 ft 260 kts 63°
2026-04-26 16:10 -22.85791 -43.36322 21208 ft 261 kts 63°
2026-04-26 16:10 -22.85075 -43.34513 21448 ft 261 kts 63°
2026-04-26 16:10 -22.84360 -43.32705 21693 ft 261 kts 63°
2026-04-26 16:10 -22.83643 -43.30891 21910 ft 261 kts 63°
2026-04-26 16:11 -22.82927 -43.29082 22155 ft 261 kts 63°
2026-04-26 16:11 -22.82213 -43.27276 22404 ft 261 kts 63°
2026-04-26 16:11 -22.81735 -43.25377 22652 ft 264 kts 82°
2026-04-26 16:11 -22.81706 -43.23383 22904 ft 265 kts 89°
2026-04-26 16:12 -22.81710 -43.21388 23161 ft 264 kts 88°
2026-04-26 16:12 -22.81704 -43.19398 23420 ft 264 kts 88°
2026-04-26 16:12 -22.81702 -43.15428 23853 ft 262 kts 88°
2026-04-26 16:13 -22.81701 -43.13456 24070 ft 261 kts 88°
2026-04-26 16:13 -22.81698 -43.11491 24291 ft 260 kts 88°
2026-04-26 16:13 -22.81695 -43.09539 24509 ft 258 kts 88°
2026-04-26 16:13 -22.81693 -43.07598 24730 ft 257 kts 88°
2026-04-26 16:14 -22.81691 -43.05693 24952 ft 256 kts 88°
2026-04-26 16:14 -22.81688 -43.03773 25177 ft 254 kts 89°
2026-04-26 16:14 -22.81681 -42.99963 25632 ft 251 kts 89°
2026-04-26 16:15 -22.81678 -42.98079 25859 ft 249 kts 89°
2026-04-26 16:15 -22.81674 -42.96212 26093 ft 247 kts 89°
2026-04-26 16:15 -22.81671 -42.94360 26324 ft 245 kts 89°
2026-04-26 16:16 -22.81662 -42.90713 26796 ft 239 kts 89°
2026-04-26 16:16 -22.81658 -42.88924 27032 ft 236 kts 89°
2026-04-26 16:16 -22.81653 -42.87154 27272 ft 233 kts 89°
2026-04-26 16:16 -22.81647 -42.85415 27511 ft 228 kts 89°
2026-04-26 16:17 -22.81643 -42.83711 27749 ft 223 kts 89°
2026-04-26 16:17 -22.81638 -42.82050 27990 ft 218 kts 89°
2026-04-26 16:17 -22.81631 -42.80428 28226 ft 211 kts 89°
2026-04-26 16:17 -22.81625 -42.78867 28462 ft 203 kts 89°
2026-04-26 16:18 -22.81621 -42.77375 28692 ft 192 kts 89°
2026-04-26 16:18 -22.81605 -42.74631 28897 ft 180 kts 89°
2026-04-26 16:19 -22.81607 -42.71906 28905 ft 182 kts 89°
2026-04-26 16:19 -22.81605 -42.70535 28907 ft 182 kts 89°
2026-04-26 16:19 -22.81599 -42.68239 28908 ft 184 kts 89°
2026-04-26 16:20 -22.81591 -42.66378 28920 ft 186 kts 89°
2026-04-26 16:20 -22.81405 -42.63577 28937 ft 186 kts 61°
2026-04-26 16:20 -22.80758 -42.62367 28921 ft 187 kts 49°
2026-04-26 16:21 -22.80043 -42.61175 28927 ft 191 kts 51°
2026-04-26 16:21 -22.79320 -42.59946 28924 ft 196 kts 50°
2026-04-26 16:21 -22.78563 -42.58682 28924 ft 204 kts 50°
2026-04-26 16:21 -22.77775 -42.57373 28926 ft 211 kts 51°
2026-04-26 16:22 -22.76974 -42.56032 28924 ft 219 kts 51°
2026-04-26 16:22 -22.76132 -42.54623 28924 ft 227 kts 52°
2026-04-26 16:22 -22.75254 -42.53158 28924 ft 236 kts 52°
2026-04-26 16:22 -22.74344 -42.51640 28928 ft 245 kts 52°
2026-04-26 16:23 -22.73397 -42.50059 28931 ft 254 kts 52°
2026-04-26 16:23 -22.72417 -42.48424 28930 ft 263 kts 52°
2026-04-26 16:23 -22.71407 -42.46738 28931 ft 271 kts 53°
2026-04-26 16:23 -22.70364 -42.45000 28924 ft 279 kts 53°
2026-04-26 16:24 -22.69294 -42.43216 28928 ft 286 kts 53°
2026-04-26 16:24 -22.68198 -42.41388 28921 ft 293 kts 53°
2026-04-26 16:24 -22.67077 -42.39521 28926 ft 298 kts 53°
2026-04-26 16:24 -22.65935 -42.37621 28924 ft 304 kts 53°
2026-04-26 16:25 -22.63592 -42.33722 28922 ft 312 kts 53°
2026-04-26 16:25 -22.61211 -42.29762 28920 ft 319 kts 54°
2026-04-26 16:26 -22.59171 -42.26372 28923 ft 323 kts 54°
2026-04-26 16:26 -22.57208 -42.23986 28915 ft 319 kts 35°
2026-04-26 16:26 -22.55489 -42.22459 28923 ft 321 kts 35°
2026-04-26 16:27 -22.52049 -42.19344 28927 ft 324 kts 36°
2026-04-26 16:27 -22.48566 -42.16212 28933 ft 327 kts 36°
2026-04-26 16:28 -22.45065 -42.13059 28939 ft 329 kts 36°
2026-04-26 16:28 -22.41536 -42.09886 28929 ft 330 kts 36°
2026-04-26 16:29 -22.38017 -42.06722 28927 ft 331 kts 36°
2026-04-26 16:29 -22.34467 -42.03535 28919 ft 332 kts 36°
2026-04-26 16:30 -22.30913 -42.00343 28913 ft 332 kts 36°
2026-04-26 16:30 -22.27354 -41.97153 28905 ft 333 kts 36°
2026-04-26 16:31 -22.23785 -41.93952 28902 ft 333 kts 36°
2026-04-26 16:31 -22.20217 -41.90756 28897 ft 333 kts 36°
2026-04-26 16:32 -22.17255 -41.88098 28901 ft 332 kts 36°
2026-04-26 16:32 -22.13129 -41.84417 28907 ft 331 kts 36°
2026-04-26 16:33 -22.09577 -41.81236 28908 ft 331 kts 36°
2026-04-26 16:33 -22.06026 -41.78064 28916 ft 332 kts 36°
2026-04-26 16:34 -22.02469 -41.74888 28920 ft 332 kts 36°
2026-04-26 16:34 -21.98905 -41.71706 28924 ft 332 kts 36°
2026-04-26 16:35 -21.95373 -41.68546 28923 ft 332 kts 37°
2026-04-26 16:35 -21.91801 -41.65386 28924 ft 332 kts 36°
2026-04-26 16:36 -21.88245 -41.62205 28918 ft 332 kts 36°
2026-04-26 16:36 -21.84684 -41.59043 28911 ft 332 kts 36°
2026-04-26 16:37 -21.81132 -41.55882 28909 ft 331 kts 37°
2026-04-26 16:37 -21.78177 -41.53258 28906 ft 331 kts 37°
2026-04-26 16:38 -21.74056 -41.49598 28908 ft 331 kts 37°
2026-04-26 16:38 -21.70506 -41.46448 28904 ft 331 kts 37°
2026-04-26 16:39 -21.66957 -41.43302 28902 ft 330 kts 37°
2026-04-26 16:39 -21.63408 -41.40157 28903 ft 330 kts 37°
2026-04-26 16:40 -21.59862 -41.37015 28903 ft 330 kts 37°
2026-04-26 16:40 -21.56316 -41.33874 28903 ft 330 kts 37°
2026-04-26 16:41 -21.52769 -41.30736 28905 ft 330 kts 37°
2026-04-26 16:41 -21.49821 -41.28128 28903 ft 330 kts 37°
2026-04-26 16:42 -21.46274 -41.24992 28906 ft 330 kts 37°
2026-04-26 16:42 -21.42705 -41.21840 28550 ft 341 kts 37°
2026-04-26 16:43 -21.40835 -41.20188 28097 ft 353 kts 37°
2026-04-26 16:43 -21.38929 -41.18497 27657 ft 356 kts 38°
2026-04-26 16:43 -21.37030 -41.16800 27167 ft 354 kts 38°
2026-04-26 16:43 -21.35134 -41.15126 26685 ft 352 kts 37°
2026-04-26 16:44 -21.33239 -41.13477 26203 ft 350 kts 37°
2026-04-26 16:44 -21.31376 -41.11835 25746 ft 343 kts 38°
2026-04-26 16:44 -21.29580 -41.10240 25288 ft 337 kts 38°
2026-04-26 16:44 -21.27783 -41.08663 24833 ft 331 kts 38°
2026-04-26 16:45 -21.26011 -41.07114 24386 ft 326 kts 38°
2026-04-26 16:45 -21.24265 -41.05579 23944 ft 322 kts 38°
2026-04-26 16:45 -21.22542 -41.04062 23513 ft 319 kts 38°
2026-04-26 16:45 -21.20834 -41.02560 22998 ft 315 kts 38°
2026-04-26 16:46 -21.19148 -41.01078 22489 ft 312 kts 38°
2026-04-26 16:46 -21.17476 -40.99611 21993 ft 309 kts 38°
2026-04-26 16:46 -21.15821 -40.98158 21498 ft 306 kts 38°
2026-04-26 16:46 -21.14183 -40.96719 21017 ft 303 kts 38°
2026-04-26 16:47 -21.12558 -40.95293 20538 ft 300 kts 38°
2026-04-26 16:47 -21.10951 -40.93883 20069 ft 297 kts 37°
2026-04-26 16:47 -21.09358 -40.92487 19605 ft 294 kts 37°
2026-04-26 16:47 -21.07783 -40.91104 19152 ft 291 kts 37°
2026-04-26 16:48 -21.06220 -40.89736 18706 ft 289 kts 37°
2026-04-26 16:48 -21.04672 -40.88379 18262 ft 286 kts 37°
2026-04-26 16:48 -21.03137 -40.87032 17776 ft 284 kts 37°
2026-04-26 16:48 -21.01619 -40.85702 17265 ft 281 kts 38°
2026-04-26 16:49 -21.00131 -40.84402 16777 ft 278 kts 38°
2026-04-26 16:49 -20.98637 -40.83094 16319 ft 277 kts 38°
2026-04-26 16:49 -20.97137 -40.81791 15959 ft 279 kts 38°
2026-04-26 16:49 -20.95634 -40.80473 15606 ft 279 kts 38°
2026-04-26 16:50 -20.94133 -40.79152 15256 ft 278 kts 38°
2026-04-26 16:50 -20.92641 -40.77844 14907 ft 277 kts 38°
2026-04-26 16:50 -20.91154 -40.76546 14565 ft 275 kts 38°
2026-04-26 16:50 -20.89676 -40.75256 14226 ft 273 kts 38°
2026-04-26 16:51 -20.88212 -40.73975 13912 ft 271 kts 38°
2026-04-26 16:51 -20.86760 -40.72706 13583 ft 268 kts 38°
2026-04-26 16:51 -20.85321 -40.71449 13228 ft 266 kts 38°
2026-04-26 16:51 -20.83893 -40.70203 12878 ft 264 kts 38°
2026-04-26 16:52 -20.82476 -40.68964 12532 ft 263 kts 38°
2026-04-26 16:52 -20.81540 -40.68146 12300 ft 262 kts 38°
2026-04-26 16:52 -20.79941 -40.66239 11851 ft 254 kts 55°
2026-04-26 16:52 -20.78943 -40.64718 11522 ft 247 kts 52°
2026-04-26 16:53 -20.77930 -40.63264 11211 ft 241 kts 52°
2026-04-26 16:53 -20.76944 -40.61820 10927 ft 240 kts 52°
2026-04-26 16:53 -20.75971 -40.60375 10647 ft 239 kts 52°
2026-04-26 16:53 -20.75003 -40.58924 10369 ft 240 kts 52°
2026-04-26 16:54 -20.74046 -40.57506 10105 ft 237 kts 52°
2026-04-26 16:54 -20.73064 -40.56068 9882 ft 243 kts 52°
2026-04-26 16:54 -20.72053 -40.54585 9636 ft 249 kts 52°
2026-04-26 16:54 -20.71043 -40.53072 9386 ft 251 kts 52°
2026-04-26 16:55 -20.70024 -40.51551 9126 ft 252 kts 52°
2026-04-26 16:55 -20.68999 -40.50033 8875 ft 251 kts 52°
2026-04-26 16:55 -20.67976 -40.48529 8628 ft 250 kts 52°
2026-04-26 16:55 -20.66958 -40.47025 8382 ft 249 kts 52°
2026-04-26 16:56 -20.64958 -40.44055 7890 ft 241 kts 52°
2026-04-26 16:56 -20.63980 -40.42616 7639 ft 237 kts 52°
2026-04-26 16:56 -20.63015 -40.41200 7400 ft 235 kts 52°
2026-04-26 16:57 -20.62058 -40.39787 7159 ft 234 kts 52°
2026-04-26 16:57 -20.61109 -40.38384 6921 ft 233 kts 52°
2026-04-26 16:57 -20.59228 -40.35607 6452 ft 231 kts 52°
2026-04-26 16:58 -20.58288 -40.34221 6210 ft 230 kts 52°
2026-04-26 16:58 -20.57665 -40.33300 6042 ft 230 kts 52°
2026-04-26 16:58 -20.55480 -40.30083 5461 ft 228 kts 52°
2026-04-26 16:59 -20.54556 -40.28718 5222 ft 227 kts 52°
2026-04-26 16:59 -20.52705 -40.26042 4745 ft 218 kts 46°
2026-04-26 17:00 -20.50294 -40.24610 4216 ft 187 kts
2026-04-26 17:00 -20.47829 -40.24706 3717 ft 174 kts 349°
2026-04-26 17:00 -20.46641 -40.24881 3473 ft 172 kts 350°
2026-04-26 17:01 -20.45454 -40.25053 3235 ft 172 kts 350°
2026-04-26 17:01 -20.44263 -40.25231 2990 ft 173 kts 351°
2026-04-26 17:01 -20.43073 -40.25404 2719 ft 173 kts 351°
2026-04-26 17:01 -20.41883 -40.25578 2427 ft 172 kts 352°
2026-04-26 17:02 -20.40697 -40.25754 2135 ft 171 kts 352°
2026-04-26 17:02 -20.39516 -40.25932 1853 ft 171 kts 353°
2026-04-26 17:02 -20.38344 -40.26108 1793 ft 171 kts 352°
2026-04-26 17:02 -20.37143 -40.26301 1792 ft 179 kts 352°
2026-04-26 17:03 -20.35896 -40.26481 1801 ft 186 kts 353°
2026-04-26 17:03 -20.34633 -40.26648 1641 ft 173 kts 354°
2026-04-26 17:03 -20.33523 -40.26807 1415 ft 150 kts 353°
2026-04-26 17:03 -20.32524 -40.26967 1217 ft 141 kts 352°
2026-04-26 17:04 -20.31550 -40.27114 1020 ft 137 kts 354°
2026-04-26 17:04 -20.30663 -40.27245 855 ft 122 kts 352°
2026-04-26 17:04 -20.29862 -40.27390 726 ft 105 kts 348°
2026-04-26 17:04 -20.29172 -40.27494 608 ft 98 kts 352°
2026-04-26 17:05 -20.28480 -40.27587 431 ft 101 kts 351°
2026-04-26 17:05 -20.27779 -40.27675 264 ft 102 kts 350°
2026-04-26 17:05 -20.27082 -40.27782 132 ft 101 kts 351°
2026-04-26 17:05 -20.26393 -40.27879 27 ft 95 kts 352°
2026-04-26 17:06 -20.25821 -40.27963 19 ft 73 kts 351°
2026-04-26 17:06 -20.25496 -40.28011 17 ft 19 kts 352°
2026-04-26 17:06 -20.25369 -40.28028 17 ft 24 kts 354°
2026-04-26 17:06 -20.25172 -40.28068 15 ft 31 kts 343°
2026-04-26 17:07 -20.25037 -40.28155 15 ft 14 kts 290°
2026-04-26 17:07 -20.25123 -40.28243 13 ft 26 kts 210°
2026-04-26 17:07 -20.25297 -40.28356 13 ft 28 kts 212°
2026-04-26 17:07 -20.25459 -40.28462 12 ft 29 kts 213°
2026-04-26 17:08 -20.25637 -40.28578 10 ft 30 kts 212°
2026-04-26 17:08 -20.25751 -40.28680 10 ft 13 kts 270°
2026-04-26 17:08 -20.25723 -40.28741 12 ft 8 kts 301°
2026-04-26 17:08 -20.25700 -40.28796 12 ft 8 kts 252°
2026-04-26 17:09 -20.25750 -40.28835 12 ft 9 kts 214°
2026-04-26 17:09 -20.25792 -40.28863 13 ft 13 kts 211°
2026-04-26 17:09 -20.25854 -40.28938 13 ft 10 kts 277°
2026-04-26 17:09 -20.25839 -40.28978 13 ft 6 kts 302°
2026-04-26 17:10 -20.25835 -40.28984 13 ft 0 kts 304°